This is the latest recevied weather packets stored in our database for station/object N5YHM-13. If no packets are shown the sender has not sent any weather packets the latest 10 day(s).
| Time | Temp. | Humidity | Pressure | Rain* | Wind** | Luminosity | Snow |
|---|---|---|---|---|---|---|---|
| 1777578939 | 23.33° C | 94% | 1013.2 hPa | 30.73 mm | - | 27 W/m² | - |
| 1777578635 | 23.33° C | 95% | 1012.9 hPa | 30.73 mm | - | 19 W/m² | - |
| 1777578329 | 23.33° C | 95% | 1013.2 hPa | 30.73 mm | - | 18 W/m² | - |
| 1777578026 | 23.33° C | 95% | 1013.3 hPa | 30.73 mm | - | 9 W/m² | - |
| 1777577726 | 23.33° C | 95% | 1013.3 hPa | 30.73 mm | - | 10 W/m² | - |
| 1777577423 | 23.33° C | 95% | 1013.2 hPa | 30.73 mm | - | 16 W/m² | - |
| 1777577120 | 23.33° C | 95% | 1013.1 hPa | 30.73 mm | - | 12 W/m² | - |
| 1777576816 | 23.33° C | 95% | 1013.4 hPa | 30.73 mm | - | 13 W/m² | - |
| 1777576515 | 23.33° C | 95% | 1013.5 hPa | 30.73 mm | - | 11 W/m² | - |
| 1777576212 | 23.33° C | 95% | 1013.5 hPa | 30.73 mm | - | 9 W/m² | - |
| 1777575908 | 23.33° C | 94% | 1013.5 hPa | 30.73 mm | - | 14 W/m² | - |
| 1777575604 | 23.33° C | 95% | 1013.5 hPa | 30.73 mm | - | 15 W/m² | - |
| 1777575300 | 23.33° C | 94% | 1013.8 hPa | 30.73 mm | - | 12 W/m² | - |
| 1777574996 | 23.33° C | 94% | 1014 hPa | 30.73 mm | - | 10 W/m² | - |
| 1777574693 | 23.33° C | 94% | 1013.9 hPa | 30.73 mm | - | 16 W/m² | - |
| 1777574390 | 23.33° C | 94% | 1013.7 hPa | 30.73 mm | - | 21 W/m² | - |
| 1777574084 | 23.33° C | 94% | 1013.8 hPa | 30.73 mm | - | 21 W/m² | - |
| 1777573780 | 23.33° C | 94% | 1013.9 hPa | 30.73 mm | - | 20 W/m² | - |
| 1777573476 | 22.78° C | 93% | 1013.9 hPa | 30.73 mm | - | 24 W/m² | - |
| 1777573172 | 22.78° C | 94% | 1013.9 hPa | 30.73 mm | - | 21 W/m² | - |
| 1777572869 | 22.78° C | 93% | 1013.8 hPa | 30.73 mm | - | 17 W/m² | - |
| 1777572566 | 22.78° C | 93% | 1013.8 hPa | 30.73 mm | - | 24 W/m² | - |
| 1777572266 | 22.78° C | 94% | 1013.8 hPa | 30.73 mm | - | 30 W/m² | - |
| 1777571962 | 22.78° C | 95% | 1013.9 hPa | 30.73 mm | - | 47 W/m² | - |
| 1777571656 | 22.22° C | 95% | 1014.1 hPa | 30.73 mm | - | 38 W/m² | - |
* Rain latest hour (hover to see other rain measurements)
** Current wind speed in m/s (hover to see current wind gust speed)